User: anonymous   Login
Location: Oshawa
(43.9000°N, 78.8670°W)
Time: 03:56:13
(UTC-04:00)
Language:

Cosmos 1805 Rocket - Orbit

View from above orbital plane
View from above orbital plane
View from above satellite
View from above satellite

Ground track
Ground track

The orbit data is extracted from the following two-line orbital elements,

1 17192U 86097B   15108.09320087  .00000700  00000-0  82592-4 0  9991
2 17192 082.5039 278.8795 0016935 183.8683 312.0336 14.83254932531408
Epoch (UTC): 18 April 2015 02:14:12
Eccentricity: 0.0016935
inclination: 82.5039°
perigee height: 607 km
apogee height: 631 km
right ascension of ascending node: 278.8795°
argument of perigee: 183.8683°
revolutions per day: 14.83254932
mean anomaly at epoch: 312.0336°
orbit number at epoch: 53140

The dashed part of the orbit path shows where the satellite is in the earth's shadow,  

DLR